Location: Maignaut
(43.8886°N, 0.4051°E)
Time: 19:56:44
(UTC+00:00)

Cosmos 1689 Rocket - Pass Details

Date: 17 January 2021
Orbit: 353 x 367 km, 97.5° (Epoch: 28 February)

Event Time Altitude Azimuth Distance (km) Brightness Sun altitude
Exits shadow 18:23:05 44° 125° (SE) 513 2.3 -16.6°
Drops below altitude 10° 18:25:30 10° 176° (S) 1,331 4.9 -17.1°
Sets 18:27:26 0° 182° (S) 2,167 6.1 -17.4°
